"Pseudo-MPEC" for P10OX9X

Created 2019 Jun 20 19:07:21 UT using Find_Orb

Click here for an explanation of pseudo-MPECs

 
 Astrometry: 
     P10OX9X  C2019 06 09Xc5O?,IJ#qxf5\Neki#PhN4eAstrometry5C%GUh6redacted;t*F51
     P10OX9X  C2019 06 09emclickkiqH`3FLI(hMDEW2MkRbhWcDySr]??N.6PnJvtMXuo_?:F51
     P10OX9X  C2019 06 09=+hb]*Q:HOm!!Qt@Y\00PZ`%a?VXsKuX9^wi0yr$!MUuGh2Wxl9AF51
     P10OX9X  C2019 06 09S2udjn5fM($C%GS%?1Zl@/m/AJa^T%Jf!4WIIherewPQUs0'iu8IF51
     P10OX9X  C2019 06 11A334BT^]l!8rKXM9ivb@Mmu#w'mLtpm-)')8f@*AXVforFk)_ZZGF51
     P10OX9X  C2019 06 11Ua:P;q(CT=5H$rO-0explanationoM;6`K\QUAeiBt*6KE.-BL;_F51
     P10OX9X  C2019 06 11;=c4GJDx9-8eCite.=a)Gx.F`oifdN((lO`EnR,?PO9;8VVuWT)#F51

Station data:
(F51) Pan-STARRS 1, Haleakala  (N20.707235 W156.255910)  US/Hawaii.
   Observers N. Primak, A. Schultz, S. Watters, J. Thiel, T. Goggia. Measurer
   PS1 Science Consortium. 1.8-m Ritchey-Chrétien + CCD.

Orbital elements:  P10OX9X
   Perihelion 2018 Apr 13.072147 +/- 724 TT =  1:43:53 (JD 2458221.572147)
Epoch 2019 Jun 11.0 TT = JDT 2458645.5   Earth MOID: 0.5386   Ma: 0.0943
M 100.89579598 +/- 100              (J2000 ecliptic)          AutoNEOCP
n   0.23800228 +/- 0.204            Peri.  346.80077 +/- 70
a   2.57878599 +/- 1.47             Node   179.90047 +/- 52
e   0.4076590 +/- 0.234             Incl.   21.08591 +/- 10
P   4.14                   H 16.5   G  0.15   U 11.7  SR
q 1.52752048 +/- 2.77    Q 3.63005150 +/- 96.3
From 7 observations 2019 June 9-11; mean residual 0".10
Residuals in arcseconds: 
190609 F51  .05-  .12+    190609 F51  .05+  .10-    190611 F51  .25+  .00     
190609 F51  .00   .03+    190611 F51  .23-  .00     
190609 F51  .00   .04-    190611 F51  .03-  .01+    

Ephemerides (geocentric):
Date (UTC) HH   RA              Dec         delta   r     elong  mag " sig PA
---- -- -- --  -------------   -----------  ------ ------ -----  --- ---- ---
2019 06 20 19  21 25 42.337   +06 52 42.05  2.5108 3.1490 120.4 21.8  527 157
2019 06 20 20  21 25 41.603   +06 52 46.46  2.5105 3.1491 120.4 21.8  532 157
2019 06 20 21  21 25 40.867   +06 52 50.85  2.5101 3.1492 120.4 21.8  536 157
2019 06 20 22  21 25 40.129   +06 52 55.22  2.5098 3.1494 120.5 21.8  541 157
2019 06 20 23  21 25 39.389   +06 52 59.57  2.5094 3.1495 120.5 21.8  546 157
2019 06 21 00  21 25 38.647   +06 53 03.91  2.5090 3.1496 120.6 21.8  550 157
2019 06 21 01  21 25 37.902   +06 53 08.23  2.5087 3.1497 120.6 21.8  555 157
2019 06 21 02  21 25 37.156   +06 53 12.53  2.5083 3.1499 120.6 21.8  560 157
2019 06 21 03  21 25 36.407   +06 53 16.82  2.5080 3.1500 120.7 21.8  564 157
2019 06 21 04  21 25 35.656   +06 53 21.09  2.5076 3.1501 120.7 21.8  569 157
2019 06 21 05  21 25 34.903   +06 53 25.34  2.5073 3.1502 120.7 21.8  574 157
2019 06 21 06  21 25 34.148   +06 53 29.58  2.5069 3.1504 120.8 21.8  578 157
2019 06 21 07  21 25 33.391   +06 53 33.79  2.5066 3.1505 120.8 21.8  583 157
2019 06 21 08  21 25 32.632   +06 53 37.99  2.5062 3.1506 120.9 21.8  588 157
2019 06 21 09  21 25 31.870   +06 53 42.18  2.5059 3.1507 120.9 21.8  593 157
2019 06 21 10  21 25 31.106   +06 53 46.34  2.5055 3.1509 120.9 21.8  598 157
2019 06 21 11  21 25 30.341   +06 53 50.49  2.5052 3.1510 121.0 21.8  603 157
2019 06 21 12  21 25 29.573   +06 53 54.63  2.5048 3.1511 121.0 21.8  607 157
2019 06 21 13  21 25 28.803   +06 53 58.74  2.5045 3.1512 121.0 21.8  612 157
2019 06 21 14  21 25 28.030   +06 54 02.84  2.5041 3.1514 121.1 21.8  617 157
2019 06 21 15  21 25 27.256   +06 54 06.92  2.5037 3.1515 121.1 21.8  622 157
2019 06 21 16  21 25 26.479   +06 54 10.98  2.5034 3.1516 121.2 21.8  627 157
2019 06 21 17  21 25 25.701   +06 54 15.03  2.5030 3.1517 121.2 21.8  632 157
2019 06 21 18  21 25 24.920   +06 54 19.06  2.5027 3.1519 121.2 21.8  637 157
2019 06 21 19  21 25 24.137   +06 54 23.07  2.5023 3.1520 121.3 21.8  642 157
2019 06 21 20  21 25 23.352   +06 54 27.07  2.5020 3.1521 121.3 21.8  647 157
2019 06 21 21  21 25 22.565   +06 54 31.04  2.5016 3.1522 121.4 21.8  652 157
2019 06 21 22  21 25 21.776   +06 54 35.00  2.5013 3.1523 121.4 21.8  657 157
2019 06 21 23  21 25 20.984   +06 54 38.95  2.5009 3.1525 121.4 21.8  663 157
2019 06 22 00  21 25 20.191   +06 54 42.87  2.5006 3.1526 121.5 21.8  668 157
2019 06 22 01  21 25 19.395   +06 54 46.78  2.5002 3.1527 121.5 21.8  673 157
2019 06 22 02  21 25 18.597   +06 54 50.67  2.4999 3.1528 121.5 21.8  678 157
2019 06 22 03  21 25 17.797   +06 54 54.55  2.4995 3.1530 121.6 21.8  683 157
2019 06 22 04  21 25 16.995   +06 54 58.40  2.4992 3.1531 121.6 21.8  688 157
2019 06 22 05  21 25 16.191   +06 55 02.24  2.4988 3.1532 121.7 21.8  694 157
2019 06 22 06  21 25 15.384   +06 55 06.06  2.4985 3.1533 121.7 21.8  699 157
2019 06 22 07  21 25 14.576   +06 55 09.87  2.4981 3.1535 121.7 21.8  704 157
2019 06 22 08  21 25 13.765   +06 55 13.65  2.4978 3.1536 121.8 21.8  710 157
2019 06 22 09  21 25 12.952   +06 55 17.42  2.4974 3.1537 121.8 21.8  715 157
2019 06 22 10  21 25 12.138   +06 55 21.18  2.4971 3.1538 121.9 21.8  720 157
2019 06 22 11  21 25 11.321   +06 55 24.91  2.4967 3.1540 121.9 21.8  726 157
2019 06 22 12  21 25 10.501   +06 55 28.63  2.4964 3.1541 121.9 21.8  731 157
2019 06 22 13  21 25 09.680   +06 55 32.33  2.4961 3.1542 122.0 21.8  736 157
2019 06 22 14  21 25 08.857   +06 55 36.01  2.4957 3.1543 122.0 21.8  742 157
2019 06 22 15  21 25 08.031   +06 55 39.68  2.4954 3.1545 122.0 21.8  747 157
2019 06 22 16  21 25 07.203   +06 55 43.32  2.4950 3.1546 122.1 21.8  753 157
2019 06 22 17  21 25 06.374   +06 55 46.95  2.4947 3.1547 122.1 21.8  758 157
2019 06 22 18  21 25 05.542   +06 55 50.57  2.4943 3.1548 122.2 21.8  764 157